timestamp,surface_pressure_avg,surface_temp_avg,battery_voltage,lat,long
2019-04-13 00:00:00+00:00,241.0747,0.67,12.97,47.84626,-54.09684
2019-04-13 00:10:00+00:00,240.7864,0.66,12.89,47.84626,-54.09684
2019-04-13 00:20:00+00:00,240.1314,0.62,12.97,47.84626,-54.09684
2019-04-13 00:30:00+00:00,245.2081,0.6,12.97,47.84626,-54.09684
2019-04-13 00:40:00+00:00,246.0048,0.7,12.97,47.84626,-54.09684
2019-04-13 00:50:00+00:00,244.8347,0.69,12.97,47.84626,-54.09684
2019-04-13 01:00:00+00:00,243.7097,0.66,12.89,47.84626,-54.09684
2019-04-13 01:10:00+00:00,246.9281,0.6,12.81,47.84626,-54.09684
2019-04-13 01:20:00+00:00,247.6698,0.6,12.89,47.84626,-54.09684
2019-04-13 01:30:00+00:00,251.0598,0.6,12.89,47.84626,-54.09684
2019-04-13 01:40:00+00:00,254.1697,0.6,12.97,47.84626,-54.09684
2019-04-13 01:50:00+00:00,258.8948,0.57,12.97,47.84626,-54.09684
2019-04-13 02:00:00+00:00,261.7047,0.58,12.89,47.84626,-54.09684
2019-04-13 02:10:00+00:00,267.4431,0.6,12.81,47.84626,-54.09684
2019-04-13 02:20:00+00:00,276.243,0.6,12.89,47.84626,-54.09684
2019-04-13 02:30:00+00:00,286.1864,0.6,12.89,47.84626,-54.09684
2019-04-13 02:40:00+00:00,291.4547,0.6,12.89,47.84626,-54.09684
2019-04-13 02:50:00+00:00,296.983,0.6,12.89,47.84626,-54.09684
2019-04-13 03:00:00+00:00,299.498,0.6,12.81,47.84626,-54.09684
2019-04-13 03:10:00+00:00,301.1248,0.6,12.73,47.84626,-54.09684
2019-04-13 03:20:00+00:00,304.898,0.6,12.89,47.84626,-54.09684
2019-04-13 03:30:00+00:00,313.498,0.6,12.89,47.84626,-54.09684
2019-04-13 03:40:00+00:00,315.798,0.6,12.89,47.84626,-54.09684
2019-04-13 03:50:00+00:00,318.353,0.6,12.89,47.84626,-54.09684
2019-04-13 04:00:00+00:00,323.3513,0.6,12.81,47.84626,-54.09684
2019-04-13 04:10:00+00:00,325.858,0.6,12.73,47.84626,-54.09684
2019-04-13 04:20:00+00:00,323.993,0.6,12.81,47.84626,-54.09684
2019-04-13 04:30:00+00:00,327.7047,0.5,12.81,47.84626,-54.09684
2019-04-13 04:40:00+00:00,333.358,0.49,12.89,47.84626,-54.09684
2019-04-13 04:50:00+00:00,332.7463,0.5,12.89,47.84626,-54.09684
2019-04-13 05:00:00+00:00,332.5079,0.55,12.81,47.84626,-54.09684
2019-04-13 05:10:00+00:00,334.468,0.56,12.73,47.84626,-54.09684
2019-04-13 05:20:00+00:00,339.4563,0.54,12.81,47.84626,-54.09684
2019-04-13 05:30:00+00:00,340.2662,0.5,12.81,47.84626,-54.09684
2019-04-13 05:40:00+00:00,342.2912,0.5,12.81,47.84626,-54.09684
2019-04-13 05:50:00+00:00,344.2346,0.5,12.81,47.84626,-54.09684
2019-04-13 06:00:00+00:00,344.9896,0.5,12.73,47.84626,-54.09684
2019-04-13 06:10:00+00:00,344.6846,0.5,12.65,47.84626,-54.09684
2019-04-13 06:20:00+00:00,344.2246,0.5,12.73,47.84626,-54.09684
2019-04-13 06:30:00+00:00,344.0897,0.5,12.73,47.84626,-54.09684
2019-04-13 06:40:00+00:00,341.7281,0.49,12.81,47.84626,-54.09684
2019-04-13 06:50:00+00:00,340.5229,0.42,12.81,47.84626,-54.09684
2019-04-13 07:00:00+00:00,333.8264,0.4,12.73,47.84626,-54.09684
2019-04-13 07:10:00+00:00,324.7946,0.45,12.65,47.84626,-54.09684
2019-04-13 07:20:00+00:00,321.4263,0.44,12.73,47.84626,-54.09684
2019-04-13 07:30:00+00:00,317.7479,0.47,12.73,47.84626,-54.09684
2019-04-13 07:40:00+00:00,309.7097,0.46,12.73,47.84626,-54.09684
2019-04-13 07:50:00+00:00,299.948,0.46,12.81,47.84626,-54.09684
2019-04-13 08:00:00+00:00,297.9447,0.47,12.73,47.84626,-54.09684
2019-04-13 08:10:00+00:00,294.6296,0.46,12.65,47.84626,-54.09684
2019-04-13 08:20:00+00:00,288.0513,0.45,12.73,47.84626,-54.09684
2019-04-13 08:30:00+00:00,278.9213,0.43,12.73,47.84626,-54.09684
2019-04-13 08:40:00+00:00,271.4831,0.42,12.73,47.84626,-54.09684
2019-04-13 08:50:00+00:00,266.9131,0.45,12.73,47.84626,-54.09684
2019-04-13 09:00:00+00:00,262.9047,0.47,12.65,47.84626,-54.09684
2019-04-13 09:10:00+00:00,256.0514,0.47,12.65,47.84626,-54.09684
2019-04-13 09:20:00+00:00,247.9314,0.41,12.89,47.84626,-54.09684
2019-04-13 09:30:00+00:00,244.1164,0.4,13.05,47.84626,-54.09684
2019-04-13 09:40:00+00:00,239.8947,0.4,13.44,47.84626,-54.09684
2019-04-13 09:50:00+00:00,233.7298,0.42,13.76,47.84626,-54.09684
2019-04-13 10:00:00+00:00,231.1698,0.45,13.92,47.84626,-54.09684
2019-04-13 10:10:00+00:00,232.2814,0.4,14.16,47.84626,-54.09684
2019-04-13 10:20:00+00:00,231.2665,0.41,14.48,47.84626,-54.09684
2019-04-13 10:30:00+00:00,228.9198,0.44,14.64,47.84626,-54.09684
2019-04-13 10:40:00+00:00,227.7081,0.48,14.8,47.84626,-54.09684
2019-04-13 10:50:00+00:00,231.7198,0.5,14.88,47.84626,-54.09684
2019-04-13 11:00:00+00:00,229.5114,0.5,14.72,47.84626,-54.09684
2019-04-13 11:10:00+00:00,222.1014,0.5,14.96,47.84626,-54.09684
2019-04-13 11:20:00+00:00,223.6581,0.5,14.96,47.84626,-54.09684
2019-04-13 11:30:00+00:00,230.2731,0.5,14.88,47.84626,-54.09684
2019-04-13 11:40:00+00:00,230.9448,0.5,14.88,47.84626,-54.09684
2019-04-13 11:50:00+00:00,229.0864,0.5,14.96,47.84626,-54.09684
2019-04-13 12:00:00+00:00,233.6814,0.5,14.96,47.84626,-54.09684
2019-04-13 12:10:00+00:00,233.8163,0.5,14.96,47.84626,-54.09684
2019-04-13 12:20:00+00:00,232.6964,0.49,15.04,47.84626,-54.09684
2019-04-13 12:30:00+00:00,230.9247,0.49,14.88,47.84626,-54.09684
2019-04-13 12:40:00+00:00,232.9848,0.48,14.8,47.84626,-54.09684
2019-04-13 12:50:00+00:00,235.0663,0.47,14.72,47.84626,-54.09684
2019-04-13 13:00:00+00:00,237.5014,0.49,14.64,47.84626,-54.09684
2019-04-13 13:10:00+00:00,241.2431,0.5,14.64,47.84626,-54.09684
2019-04-13 13:20:00+00:00,243.3481,0.5,14.64,47.84626,-54.09684
2019-04-13 13:30:00+00:00,243.4415,0.56,14.72,47.84626,-54.09684
2019-04-13 13:40:00+00:00,242.5881,0.6,14.8,47.84626,-54.09684
2019-04-13 13:50:00+00:00,243.5147,0.6,14.88,47.84626,-54.09684
2019-04-13 14:00:00+00:00,242.2547,0.6,14.72,47.84626,-54.09684
2019-04-13 14:10:00+00:00,242.2714,0.58,14.64,47.84626,-54.09684
2019-04-13 14:20:00+00:00,241.5831,0.5,14.72,47.84626,-54.09684
2019-04-13 14:30:00+00:00,245.0714,0.45,14.72,47.84626,-54.09684
2019-04-13 14:40:00+00:00,251.2264,0.4,14.8,47.84626,-54.09684
2019-04-13 14:50:00+00:00,259.2565,0.39,14.8,47.84626,-54.09684
2019-04-13 15:00:00+00:00,265.5531,0.38,14.72,47.84626,-54.09684
2019-04-13 15:10:00+00:00,269.2064,0.37,14.64,47.84626,-54.09684
2019-04-13 15:20:00+00:00,272.1314,0.36,14.8,47.84626,-54.09684
2019-04-13 15:30:00+00:00,280.3047,0.3,14.8,47.84626,-54.09684
2019-04-13 15:40:00+00:00,287.3647,0.3,14.8,47.84626,-54.09684
2019-04-13 15:50:00+00:00,286.6746,0.3,14.72,47.84626,-54.09684
2019-04-13 16:00:00+00:00,286.0214,0.3,14.64,47.84626,-54.09684
2019-04-13 16:10:00+00:00,290.7664,0.3,14.56,47.84626,-54.09684
2019-04-13 16:20:00+00:00,295.2747,0.3,14.64,47.84626,-54.09684
2019-04-13 16:30:00+00:00,296.633,0.28,14.64,47.84626,-54.09684
2019-04-13 16:40:00+00:00,299.0881,0.21,14.64,47.84626,-54.09684
2019-04-13 16:50:00+00:00,299.9797,0.2,14.64,47.84626,-54.09684
2019-04-13 17:00:00+00:00,301.7029,0.2,14.56,47.84626,-54.09684
2019-04-13 17:10:00+00:00,298.4597,0.18,14.48,47.84626,-54.09684
2019-04-13 17:20:00+00:00,299.543,0.15,14.56,47.84626,-54.09684
2019-04-13 17:30:00+00:00,304.5663,0.17,14.56,47.84626,-54.09684
2019-04-13 17:40:00+00:00,303.5047,0.17,14.48,47.84626,-54.09684
2019-04-13 17:50:00+00:00,297.9763,0.16,14.48,47.84626,-54.09684
2019-04-13 18:00:00+00:00,300.888,0.11,14.32,47.84626,-54.09684
2019-04-13 18:10:00+00:00,309.1647,0.14,14.16,47.84626,-54.09684
2019-04-13 18:20:00+00:00,306.618,0.14,14.24,47.84626,-54.09684
2019-04-13 18:30:00+00:00,304.333,0.1,14.24,47.84626,-54.09684
2019-04-13 18:40:00+00:00,308.9263,0.1,14.16,47.84626,-54.09684
2019-04-13 18:50:00+00:00,313.1396,0.1,14.16,47.84626,-54.09684
2019-04-13 19:00:00+00:00,307.7946,0.1,14.08,47.84626,-54.09684
2019-04-13 19:10:00+00:00,300.8247,0.1,13.92,47.84626,-54.09684
2019-04-13 19:20:00+00:00,303.8363,0.1,13.92,47.84626,-54.09684
2019-04-13 19:30:00+00:00,306.3547,0.1,13.92,47.84626,-54.09684
2019-04-13 19:40:00+00:00,300.5997,0.1,13.92,47.84626,-54.09684
2019-04-13 19:50:00+00:00,290.5631,0.1,13.92,47.84626,-54.09684
2019-04-13 20:00:00+00:00,283.5297,0.04,13.84,47.84626,-54.09684
2019-04-13 20:10:00+00:00,281.5197,0.0,13.76,47.84626,-54.09684
2019-04-13 20:20:00+00:00,273.2531,0.0,13.84,47.84626,-54.09684
2019-04-13 20:30:00+00:00,264.6731,0.0,13.76,47.84626,-54.09684
2019-04-13 20:40:00+00:00,258.7264,0.0,13.76,47.84626,-54.09684
2019-04-13 20:50:00+00:00,254.1264,0.03,13.76,47.84626,-54.09684
2019-04-13 21:00:00+00:00,245.858,0.0,13.68,47.84626,-54.09684
2019-04-13 21:10:00+00:00,244.0064,0.0,13.53,47.84626,-54.09684
2019-04-13 21:20:00+00:00,245.6998,0.0,13.53,47.84626,-54.09684
2019-04-13 21:30:00+00:00,242.3881,0.0,13.44,47.84626,-54.09684
2019-04-13 21:40:00+00:00,231.7998,0.0,13.44,47.84626,-54.09684
2019-04-13 21:50:00+00:00,226.2647,0.0,13.44,47.84626,-54.09684
2019-04-13 22:00:00+00:00,229.1597,0.0,13.29,47.84626,-54.09684
2019-04-13 22:10:00+00:00,226.7397,0.0,13.21,47.84626,-54.09684
2019-04-13 22:20:00+00:00,221.8864,0.0,13.21,47.84626,-54.09684
2019-04-13 22:30:00+00:00,219.4498,0.0,13.13,47.84626,-54.09684
2019-04-13 22:40:00+00:00,218.0164,0.05,13.13,47.84626,-54.09684
2019-04-13 22:50:00+00:00,212.5247,0.1,13.13,47.84626,-54.09684
2019-04-13 23:00:00+00:00,210.5547,0.2,13.05,47.84626,-54.09684
2019-04-13 23:10:00+00:00,216.0831,0.25,12.89,47.84626,-54.09684
2019-04-13 23:20:00+00:00,214.6531,0.29,12.97,47.84626,-54.09684
2019-04-13 23:30:00+00:00,209.9147,0.3,12.97,47.84626,-54.09684
2019-04-13 23:40:00+00:00,214.5664,0.3,12.97,47.84626,-54.09684
2019-04-13 23:50:00+00:00,219.9181,0.32,12.97,47.84626,-54.09684
